Gainesville, FL

10:24 AM EST on February 07, 2016 (GMT -0500)
Gainesville Regional

Weather History for KGNV - April, 2014

Change the Weather History Date:

Friday, April 11, 2014

  Actual Average Record
Temperature  
Mean Temperature 66 °F 67 °F  
Max Temperature 81 °F 79 °F 92 °F (1908)
Min Temperature 51 °F 54 °F 35 °F (1996)
Degree Days  
Heating Degree Days 0 2  
Month to date heating degree days 5 24  
Since 1 July heating degree days 1078 1195  
Cooling Degree Days 1 3  
Month to date cooling degree days 39 32  
Year to date cooling degree days 101 118  
Growing Degree Days 16 (Base 50)    
Moisture  
Dew Point 55 °F    
Average Humidity 67    
Maximum Humidity 96    
Minimum Humidity 38    
Precipitation  
Precipitation 0.00 in 0.10 in 2.99 in (1928)
Month to date precipitation 1.08 1.12  
Year to date precipitation 16.15 11.96  
Snow  
Snow 0.00 in 0.00 in 0.00 in ()
Month to date snowfall 0.0 0.0  
Since 1 July snowfall 0.0 0.0  
Snow Depth 0.00 in    
Sea Level Pressure  
Sea Level Pressure 30.22 in    
Wind  
Wind Speed 4 mph (ESE)    
Max Wind Speed 13 mph    
Max Gust Speed 18 mph    
Visibility 10 miles    
Events      
T = Trace of Precipitation, MM = Missing Value Source: NWS Daily Summary

Daily Weather History Graph

Daily Weather History Graph

Search for Another Location

Airport or City:

Trip Planner

Search our weather history database for the weather conditions in past years. The results will help you decide how hot, cold, wet, or windy it might be!

Date:

Astronomy

Apr. 11, 2014 Rise Set
Actual Time 7:06 AM EDT 7:53 PM EDT
Civil Twilight 6:42 AM EDT 8:17 PM EDT
Nautical Twilight 6:14 AM EDT 8:46 PM EDT
Astronomical Twilight 5:44 AM EDT 9:15 PM EDT
Moon 4:46 PM EDT (4/11) 4:45 AM EDT (4/11)
Length of Visible Light 13h 35m
Length of Day
12h 46m
Waxing Gibbous, 87% of the Moon is Illuminated
Apr 11
Waxing Gibbous
Apr 15
Full
Apr 22
Last Quarter
Apr 29
New
May 6
First Quarter

Hourly Weather History & Observations

Time (EDT) Temp. Heat Index Dew Point Humidity Pressure Visibility Wind Dir Wind Speed Gust Speed Precip Events Conditions
12:53 AM 60.1 °F - 53.1 °F 78% 30.27 in 10.0 mi Calm Calm - N/A   Clear
1:53 AM 57.0 °F - 54.0 °F 89% 30.26 in 10.0 mi Calm Calm - N/A   Partly Cloudy
2:53 AM 55.9 °F - 53.1 °F 90% 30.25 in 10.0 mi Calm Calm - N/A   Clear
3:53 AM 54.0 °F - 52.0 °F 93% 30.23 in 10.0 mi Calm Calm - N/A   Clear
4:53 AM 53.1 °F - 51.1 °F 93% 30.22 in 10.0 mi Calm Calm - N/A   Clear
5:53 AM 53.1 °F - 51.1 °F 93% 30.24 in 8.0 mi Calm Calm - N/A   Scattered Clouds
6:53 AM 52.0 °F - 50.0 °F 93% 30.26 in 9.0 mi Calm Calm - N/A   Partly Cloudy
7:53 AM 54.0 °F - 52.0 °F 93% 30.28 in 7.0 mi Calm Calm - N/A   Clear
8:53 AM 61.0 °F - 57.0 °F 87% 30.28 in 8.0 mi Calm Calm - N/A   Clear
9:53 AM 69.1 °F - 57.0 °F 65% 30.29 in 10.0 mi ESE 4.6 mph - N/A   Clear
10:53 AM 73.9 °F - 55.9 °F 53% 30.30 in 10.0 mi SE 8.1 mph - N/A   Clear
11:53 AM 75.9 °F - 51.1 °F 42% 30.29 in 10.0 mi East 8.1 mph - N/A   Clear
12:53 PM 75.9 °F - 48.9 °F 38% 30.26 in 10.0 mi Calm Calm - N/A   Clear
1:53 PM 79.0 °F - 52.0 °F 39% 30.23 in 10.0 mi Variable 4.6 mph 18.4 mph N/A   Scattered Clouds
2:53 PM 78.1 °F - 53.1 °F 42% 30.20 in 10.0 mi East 8.1 mph - N/A   Mostly Cloudy
3:53 PM 79.0 °F - 53.1 °F 40% 30.17 in 10.0 mi SSE 4.6 mph - N/A   Scattered Clouds
4:53 PM 80.1 °F 80.0 °F 54.0 °F 40% 30.15 in 10.0 mi ESE 8.1 mph - N/A   Clear
5:53 PM 77.0 °F - 55.9 °F 48% 30.15 in 10.0 mi SE 5.8 mph - N/A   Partly Cloudy
6:53 PM 75.9 °F - 57.0 °F 52% 30.15 in 10.0 mi East 6.9 mph - N/A   Partly Cloudy
7:53 PM 72.0 °F - 57.9 °F 61% 30.15 in 10.0 mi East 6.9 mph - N/A   Clear
8:53 PM 70.0 °F - 57.9 °F 65% 30.17 in 10.0 mi East 9.2 mph - N/A   Clear
9:53 PM 66.9 °F - 60.1 °F 79% 30.18 in 10.0 mi ESE 8.1 mph - N/A   Partly Cloudy
10:53 PM 66.9 °F - 60.1 °F 79% 30.19 in 10.0 mi SE 6.9 mph - N/A   Overcast
11:53 PM 66.0 °F - 61.0 °F 84% 30.19 in 10.0 mi SE 5.8 mph - N/A   Mostly Cloudy